Location: Newark
(47.5783°N, 6.7622°E)
Time: 12:28:26
(UTC+00:00)

Altair - All Passes

Search period start: 17 February 2020 00:00
Search period end: 27 February 2020 00:00
Orbit: 1502 x 1682 km, 47.2° (Epoch: 16 February)

Date Brightness Start Highest point End Pass type
(mag) Time Alt. Az. Time Alt. Az. Time Alt. Az.
17 Feb - 00:18:23 10° S 00:25:31 25° SE 00:32:52 10° E visible
17 Feb - 02:19:28 10° SW 02:28:49 62° SSE 02:38:34 10° ENE visible
17 Feb - 04:23:39 10° W 04:33:26 88° S 04:43:35 10° E visible
17 Feb - 06:28:27 10° WNW 06:38:22 76° SSW 06:48:29 10° ESE daylight
17 Feb - 08:33:25 10° WNW 08:42:22 38° SW 08:51:24 10° SSE daylight
17 Feb - 23:53:45 10° S 00:00:31 23° SE 00:07:26 10° E visible
18 Feb - 01:54:25 10° SW 02:03:41 59° SSE 02:13:21 10° ENE visible
18 Feb - 03:58:28 10° W 04:08:13 88° S 04:18:21 10° E visible
18 Feb - 06:03:16 10° WNW 06:13:10 78° SSW 06:23:18 10° ESE visible
18 Feb - 08:08:11 10° WNW 08:17:16 41° SW 08:26:27 10° SSE daylight
18 Feb - 10:17:01 10° WSW 10:19:55 12° WSW 10:22:50 10° SW daylight
18 Feb - 23:29:09 10° S 23:35:30 20° SE 23:41:59 10° E visible
19 Feb - 01:29:24 10° SW 01:38:34 56° SSE 01:48:07 10° ENE visible
19 Feb - 03:33:18 10° W 03:43:01 87° S 03:53:07 10° E visible
19 Feb - 05:38:06 10° W 05:47:58 80° SSW 05:58:07 10° ESE visible
19 Feb - 07:42:57 10° WNW 07:52:09 44° SW 08:01:29 10° SSE daylight
19 Feb - 09:50:49 10° W 09:54:55 13° WSW 09:59:03 10° SSW daylight
19 Feb - 23:04:39 10° SSE 23:10:30 18° SE 23:16:27 10° E visible
20 Feb - 01:04:24 10° SW 01:13:27 53° SSE 01:22:52 10° ENE visible
20 Feb - 03:08:09 10° WSW 03:17:49 86° S 03:27:53 10° E visible
20 Feb - 05:12:55 10° W 05:22:45 82° SSW 05:32:54 10° ESE visible
20 Feb - 07:17:44 10° WNW 07:27:02 46° SW 07:36:30 10° SSE daylight
20 Feb - 09:24:57 10° W 09:29:55 15° SW 09:34:54 10° SSW daylight
20 Feb - 22:40:15 10° SSE 22:45:30 16° SE 22:50:51 10° E night (unlit)
21 Feb - 00:39:24 10° SW 00:48:21 50° SE 00:57:38 10° ENE visible
21 Feb - 02:43:00 10° WSW 02:52:37 84° S 03:02:39 10° E visible
21 Feb - 04:47:45 10° W 04:57:34 83° SSW 05:07:41 10° ESE visible
21 Feb - 06:52:32 10° WNW 07:01:54 49° SW 07:11:28 10° SE daylight
21 Feb - 08:59:16 10° W 09:04:54 17° SW 09:10:35 10° SSW daylight
21 Feb - 22:15:58 10° SSE 22:20:32 15° ESE 22:25:09 10° E night (unlit)
22 Feb - 00:14:27 10° SSW 00:23:15 47° SE 00:32:24 10° ENE visible
22 Feb - 02:17:51 10° WSW 02:27:25 83° SSE 02:37:25 10° E visible
22 Feb - 04:22:34 10° W 04:32:21 85° SSW 04:42:29 10° ESE visible
22 Feb - 06:27:20 10° WNW 06:36:47 52° SSW 06:46:26 10° SE daylight
22 Feb - 08:33:41 10° W 08:39:53 19° SW 08:46:08 10° SSW daylight
22 Feb - 21:51:54 10° SE 21:55:33 13° ESE 21:59:14 10° E night (unlit)
22 Feb - 23:49:30 10° SSW 23:58:10 44° SE 00:07:09 10° ENE visible
23 Feb - 01:52:43 10° WSW 02:02:14 81° SSE 02:12:11 10° E visible
23 Feb - 03:57:24 10° W 04:07:09 86° S 04:17:15 10° ESE visible
23 Feb - 06:02:09 10° WNW 06:11:38 55° SSW 06:21:22 10° SE daylight
23 Feb - 08:08:11 10° W 08:14:51 20° SW 08:21:35 10° S daylight
23 Feb - 21:28:16 10° SE 21:30:35 11° ESE 21:32:56 10° ESE night (unlit)
23 Feb - 23:24:35 10° SSW 23:33:05 41° SE 23:41:53 10° ENE visible
24 Feb - 01:27:35 10° WSW 01:37:04 79° SSE 01:46:57 10° E visible
24 Feb - 03:32:14 10° W 03:41:57 87° S 03:52:01 10° E visible
24 Feb - 05:36:58 10° WNW 05:46:30 57° SSW 05:56:17 10° SE visible
24 Feb - 07:42:45 10° W 07:49:48 22° SW 07:56:58 10° S daylight
24 Feb - 22:59:42 10° SSW 23:08:01 38° SE 23:16:38 10° ENE visible
25 Feb - 01:02:28 10° WSW 01:11:54 77° SSE 01:21:44 10° ENE visible
25 Feb - 03:07:04 10° W 03:16:44 88° S 03:26:48 10° E visible
25 Feb - 05:11:47 10° WNW 05:21:21 60° SSW 05:31:11 10° SE visible
25 Feb - 07:17:21 10° W 07:24:46 24° SW 07:32:16 10° S daylight
25 Feb - 22:34:50 10° SSW 22:42:58 36° SE 22:51:21 10° ENE night (unlit)
26 Feb - 00:37:22 10° WSW 00:46:44 74° SSE 00:56:30 10° ENE visible
26 Feb - 02:41:54 10° W 02:51:32 88° S 03:01:33 10° E visible
26 Feb - 04:46:37 10° WNW 04:56:11 63° SSW 05:06:04 10° SE visible
26 Feb - 06:52:00 10° W 06:59:42 27° SW 07:07:32 10° S daylight
26 Feb - 22:10:00 10° SSW 22:17:55 33° SE 22:26:04 10° ENE night (unlit)
